TimeCST,TemperatureF,Dew PointF,Humidity,Sea Level PressureIn,VisibilityMPH,Wind Direction,Wind SpeedMPH,Gust SpeedMPH,PrecipitationIn,Events,Conditions,WindDirDegrees,DateUTC
12:14 AM,13.1,8.6,82,30.07,10.0,North,5.8,-,N/A,,Overcast,350,2014-02-16 06:14:00
12:35 AM,12.7,8.1,82,30.07,10.0,North,6.9,-,N/A,,Overcast,10,2014-02-16 06:35:00
12:55 AM,12.2,7.7,82,30.06,10.0,North,4.6,-,N/A,,Overcast,10,2014-02-16 06:55:00
1:14 AM,11.7,7.5,83,30.06,10.0,North,5.8,-,N/A,,Overcast,10,2014-02-16 07:14:00
1:35 AM,9.7,5.7,84,30.06,10.0,NE,4.6,-,N/A,,Overcast,40,2014-02-16 07:35:00
1:55 AM,8.4,4.8,85,30.06,10.0,NNE,4.6,-,N/A,,Scattered Clouds,30,2014-02-16 07:55:00
2:14 AM,7.5,4.1,86,30.07,10.0,NE,5.8,-,N/A,,Clear,40,2014-02-16 08:14:00
2:35 AM,6.8,3.4,86,30.08,10.0,NNE,6.9,-,N/A,,Scattered Clouds,30,2014-02-16 08:35:00
2:54 AM,5.9,2.3,85,30.08,10.0,NNE,4.6,-,N/A,,Scattered Clouds,20,2014-02-16 08:54:00
3:15 AM,4.8,1.4,86,30.11,10.0,Calm,Calm,-,N/A,,Scattered Clouds,0,2014-02-16 09:15:00
3:35 AM,3.9,0.9,87,30.12,10.0,Calm,Calm,-,N/A,,Scattered Clouds,0,2014-02-16 09:35:00
3:54 AM,3.4,0.1,86,30.13,10.0,Calm,Calm,-,N/A,,Scattered Clouds,0,2014-02-16 09:54:00
4:15 AM,-1.3,-4.4,87,30.13,10.0,Calm,Calm,-,N/A,,Scattered Clouds,0,2014-02-16 10:15:00
4:35 AM,1.4,-2.0,86,30.15,10.0,Calm,Calm,-,N/A,,Mostly Cloudy,0,2014-02-16 10:35:00
4:55 AM,0.9,-2.6,86,30.16,10.0,Calm,Calm,-,N/A,,Scattered Clouds,0,2014-02-16 10:55:00
5:14 AM,-2.4,-6.0,85,30.17,10.0,Calm,Calm,-,N/A,,Mostly Cloudy,0,2014-02-16 11:14:00
5:35 AM,-5.4,-9.6,82,30.18,10.0,Calm,Calm,-,N/A,,Mostly Cloudy,0,2014-02-16 11:35:00
5:55 AM,-2.7,-6.3,85,30.18,10.0,Calm,Calm,-,N/A,,Mostly Cloudy,0,2014-02-16 11:55:00
6:14 AM,-6.0,-9.8,84,30.19,10.0,Calm,Calm,-,N/A,,Mostly Cloudy,0,2014-02-16 12:14:00
6:35 AM,-2.4,-5.8,85,30.18,10.0,Calm,Calm,-,N/A,,Mostly Cloudy,0,2014-02-16 12:35:00
6:55 AM,-0.4,-4.0,85,30.18,10.0,Calm,Calm,-,N/A,,Mostly Cloudy,0,2014-02-16 12:55:00
7:14 AM,-0.4,-4.0,85,30.18,10.0,NNE,4.6,-,N/A,,Scattered Clouds,30,2014-02-16 13:14:00
7:35 AM,1.0,-2.6,85,30.19,10.0,Calm,Calm,-,N/A,,Scattered Clouds,0,2014-02-16 13:35:00
7:55 AM,1.0,-2.4,86,30.21,10.0,Calm,Calm,-,N/A,,Scattered Clouds,0,2014-02-16 13:55:00
8:14 AM,1.9,-1.5,86,30.22,10.0,Calm,Calm,-,N/A,,Scattered Clouds,0,2014-02-16 14:14:00
8:35 AM,3.0,-0.4,86,30.23,10.0,Calm,Calm,-,N/A,,Clear,0,2014-02-16 14:35:00
8:54 AM,4.1,1.0,87,30.24,10.0,Calm,Calm,-,N/A,,Scattered Clouds,0,2014-02-16 14:54:00
9:15 AM,5.2,2.1,87,30.24,10.0,ENE,5.8,-,N/A,,Clear,60,2014-02-16 15:15:00
9:35 AM,7.7,5.0,89,30.23,10.0,ENE,10.4,-,N/A,,Clear,70,2014-02-16 15:35:00
9:54 AM,7.9,5.0,88,30.23,10.0,ENE,8.1,-,N/A,,Clear,70,2014-02-16 15:54:00
10:15 AM,9.1,4.8,83,30.23,10.0,East,6.9,-,N/A,,Clear,90,2014-02-16 16:15:00
10:35 AM,10.9,2.8,70,30.23,10.0,East,5.8,-,N/A,,Clear,100,2014-02-16 16:35:00
10:54 AM,11.7,2.5,67,30.23,10.0,East,6.9,-,N/A,,Clear,100,2014-02-16 16:54:00
11:15 AM,12.0,2.7,66,30.23,10.0,East,6.9,-,N/A,,Clear,80,2014-02-16 17:15:00
11:35 AM,13.3,3.0,64,30.23,10.0,ESE,4.6,-,N/A,,Clear,110,2014-02-16 17:35:00
11:54 AM,13.8,3.2,63,30.23,10.0,Calm,Calm,-,N/A,,Clear,0,2014-02-16 17:54:00
12:15 PM,14.0,3.2,62,30.22,10.0,Calm,Calm,-,N/A,,Clear,0,2014-02-16 18:15:00
12:35 PM,14.9,3.7,61,30.20,10.0,Calm,Calm,-,N/A,,Clear,0,2014-02-16 18:35:00
12:54 PM,15.4,3.9,60,30.19,10.0,Calm,Calm,-,N/A,,Clear,0,2014-02-16 18:54:00
1:15 PM,16.3,4.1,59,30.17,10.0,Calm,Calm,-,N/A,,Clear,0,2014-02-16 19:15:00
1:35 PM,16.9,4.3,58,30.16,10.0,Calm,Calm,-,N/A,,Clear,0,2014-02-16 19:35:00
1:54 PM,18.3,4.3,54,30.15,10.0,Calm,Calm,-,N/A,,Clear,0,2014-02-16 19:54:00
2:15 PM,17.4,4.8,58,30.15,10.0,Calm,Calm,-,N/A,,Clear,0,2014-02-16 20:15:00
2:35 PM,20.3,5.0,52,30.13,10.0,SE,8.1,-,N/A,,Clear,130,2014-02-16 20:35:00
2:54 PM,19.9,4.8,52,30.13,10.0,ESE,9.2,-,N/A,,Clear,120,2014-02-16 20:54:00
3:15 PM,19.9,5.0,52,30.13,10.0,ESE,9.2,-,N/A,,Clear,110,2014-02-16 21:15:00
3:35 PM,19.0,4.5,53,30.11,10.0,ESE,10.4,-,N/A,,Clear,120,2014-02-16 21:35:00
3:54 PM,19.0,4.8,54,30.11,10.0,ESE,9.2,-,N/A,,Clear,120,2014-02-16 21:54:00
4:15 PM,19.0,5.0,54,30.11,10.0,SE,8.1,-,N/A,,Clear,140,2014-02-16 22:15:00
4:34 PM,18.5,5.4,57,30.11,10.0,ESE,5.8,-,N/A,,Clear,120,2014-02-16 22:34:00
4:55 PM,18.3,5.5,57,30.11,10.0,SE,10.4,-,N/A,,Clear,130,2014-02-16 22:55:00
5:15 PM,18.1,5.5,58,30.11,10.0,SE,8.1,-,N/A,,Clear,130,2014-02-16 23:15:00
5:35 PM,17.6,5.7,60,30.12,10.0,ESE,5.8,-,N/A,,Clear,120,2014-02-16 23:35:00
5:55 PM,17.6,5.9,60,30.10,10.0,ESE,4.6,-,N/A,,Clear,110,2014-02-16 23:55:00
6:15 PM,17.6,5.9,60,30.11,10.0,ESE,5.8,-,N/A,,Clear,110,2014-02-17 00:15:00
6:35 PM,17.6,6.4,62,30.11,10.0,ESE,5.8,-,N/A,,Clear,120,2014-02-17 00:35:00
6:55 PM,17.6,6.8,63,30.11,10.0,ESE,4.6,-,N/A,,Scattered Clouds,120,2014-02-17 00:55:00
7:15 PM,17.4,6.8,63,30.11,10.0,ESE,5.8,-,N/A,,Mostly Cloudy,120,2014-02-17 01:15:00
7:35 PM,17.4,6.8,63,30.10,10.0,ESE,5.8,-,N/A,,Overcast,110,2014-02-17 01:35:00
7:54 PM,17.6,7.0,63,30.09,10.0,ESE,6.9,-,N/A,,Overcast,120,2014-02-17 01:54:00
8:15 PM,17.6,7.2,64,30.08,10.0,ESE,5.8,-,N/A,,Overcast,110,2014-02-17 02:15:00
8:35 PM,17.6,7.5,65,30.06,10.0,ESE,8.1,-,N/A,,Overcast,110,2014-02-17 02:35:00
8:54 PM,17.6,7.3,64,30.06,10.0,ESE,6.9,-,N/A,,Overcast,120,2014-02-17 02:54:00
9:15 PM,18.0,7.7,64,30.06,10.0,ESE,6.9,-,N/A,,Mostly Cloudy,120,2014-02-17 03:15:00
9:35 PM,18.3,8.2,65,30.04,10.0,ESE,6.9,-,N/A,,Mostly Cloudy,120,2014-02-17 03:35:00
9:55 PM,18.5,8.4,65,30.03,10.0,ESE,6.9,-,N/A,,Overcast,120,2014-02-17 03:55:00
10:14 PM,18.9,8.6,64,30.03,10.0,SE,6.9,-,N/A,,Overcast,130,2014-02-17 04:14:00
10:35 PM,19.2,9.0,64,30.02,10.0,ESE,9.2,-,N/A,,Overcast,120,2014-02-17 04:35:00
10:55 PM,19.4,9.5,65,30.02,10.0,SE,8.1,-,N/A,,Overcast,130,2014-02-17 04:55:00
11:15 PM,20.1,9.9,64,30.01,10.0,SE,12.7,18.4,N/A,,Overcast,140,2014-02-17 05:15:00
11:35 PM,20.3,10.4,66,30.00,10.0,SE,16.1,19.6,N/A,,Overcast,130,2014-02-17 05:35:00
11:54 PM,20.3,10.6,66,29.99,10.0,SE,11.5,19.6,N/A,,Overcast,130,2014-02-17 05:54:00